[[{"header":{"parameterUnit":"m.s-1","parameterCategory":1,"la1":30.2991,"la2":30.254,"lo1":-89.0895,"lo2":-89.0444,"dy":0.0017,"dx":0.0017,"nx":28,"ny":28,"refTime":"2025-07-11T21:00:00:Z","depth":0,"parameterNumber":2,"parameterNumberName":"U-component_of_WINDS"},"data":[0,0,0,0,0,0,0,0,0,0,0,0,0,0,0,0,0,0,0,0,0,0,0,0,0,0,0,0,0,0,0,0,0,0,0,0,0,0,0,0,0,0,0,0,0,0,0,0,0,0,0,0,0,0,0,0,0,0,1.7811,1.7812,0,1.7978,1.798,1.7981,1.8037,1.8036,1.8036,1.8035,1.8208,1.8213,1.8219,0,0,0,0,0,0,0,0,0,0,0,0,0,1.7541,1.7545,1.781,1.7812,1.7815,1.7977,1.798,1.7982,1.8037,1.8036,1.8036,1.8035,1.8206,1.8213,1.8219,0,0,0,0,0,0,0,0,0,0,0,0,0,1.7678,1.7547,1.781,1.7862,1.7868,1.7977,1.798,1.7983,1.8037,1.8036,1.8035,1.8034,1.8204,1.8212,1.822,1.829,0,0,1.8244,1.8247,0,0,0,0,0,0,0,0,1.767,1.7688,1.7852,1.7858,1.7866,1.7985,1.7948,1.8086,1.8038,1.7973,1.8035,1.8034,1.8135,1.8149,1.8182,1.8298,1.8305,1.8245,1.825,1.8253,1.8255,0,0,0,0,0,0,0,1.766,1.7681,1.7877,1.7854,1.7863,1.7877,1.7895,1.7974,1.8058,1.7979,1.7983,1.8002,1.8139,1.8175,1.8187,1.8308,1.8245,1.8252,1.8256,1.826,1.8489,1.849,0,0,0,0,0,0,1.7642,1.7672,1.7871,1.7882,1.7763,1.7883,1.7903,1.7948,1.8057,1.8073,1.8003,1.8004,1.8162,1.8178,1.8193,1.8282,1.8253,1.826,1.8265,1.8488,1.8489,1.8491,0,0,0,0,0,0,1.7636,1.7659,1.7865,1.7778,1.7806,1.7889,1.7938,1.7952,1.7988,1.8076,1.8091,1.8024,1.8161,1.8182,1.8265,1.8288,1.8264,1.8271,1.8486,1.8488,1.849,1.8459,0,0,0,0,0,0,1.7628,1.7657,1.7684,1.7778,1.781,1.7933,1.794,1.7956,1.8001,1.8004,1.81,1.8114,1.8162,1.8253,1.8273,1.8299,1.8277,1.8484,1.8487,1.8489,1.8459,1.846,1.8461,0,0,0,0,0,1.7618,1.7669,1.7685,1.7708,1.7845,1.7934,1.7952,1.8006,1.8003,1.8031,1.8087,1.8111,1.8283,1.8261,1.8284,1.8313,1.8483,1.8486,1.8489,1.8458,1.846,1.8461,0,0,0,0,0,0,1.7576,1.7682,1.7701,1.7784,1.785,1.7944,1.7981,1.8006,1.8074,1.8075,1.8139,1.816,1.8238,1.8284,1.8258,1.8386,1.8384,1.8392,1.8353,1.8355,1.8356,1.8343,1.8284,0,0,0,0,0,1.7576,1.7638,1.7729,1.7793,1.7825,1.7897,1.7938,1.7973,1.8044,1.8072,1.8135,1.8203,1.8272,1.8316,1.8385,1.8466,1.8487,1.8497,1.8498,1.8499,1.8505,1.855,1.8555,1.8501,1.8501,1.8501,0,0,1.7577,1.7643,1.7679,1.7786,1.7841,1.7905,1.792,1.7987,1.8035,1.8083,1.8164,1.8212,1.8293,1.8375,1.8414,1.8416,1.8524,1.8503,1.8502,1.8508,1.8554,1.8559,1.8563,1.8503,1.8502,1.8502,0,0,1.7611,1.7668,1.7728,1.7782,1.7865,1.7912,1.7926,1.8017,1.805,1.8133,1.817,1.8228,1.8346,1.8402,1.8445,1.85,1.8525,1.8521,1.8528,1.8571,1.8576,1.858,1.8599,1.8605,1.8527,1.8527,1.8527,0,1.7603,1.77,1.7755,1.782,1.7866,1.7911,1.7972,1.8023,1.8124,1.8155,1.8155,1.8303,1.8361,1.8456,1.8469,1.8503,1.8521,1.851,1.857,1.8575,1.858,1.8599,1.8606,1.8526,1.8526,1.8526,1.8526,0,1.7684,1.7751,1.779,1.7885,1.7936,1.7998,1.8063,1.8108,1.8139,1.8186,1.827,1.834,1.8423,1.8449,1.848,1.8548,1.8547,1.8558,1.8557,1.8583,1.8602,1.8609,1.8524,1.8524,1.8525,1.8525,0,0,1.7697,1.7822,1.7835,1.7878,1.7973,1.8026,1.809,1.8171,1.8208,1.8276,1.8331,1.843,1.8441,1.849,1.8528,1.8566,1.8604,1.8573,1.8576,1.8576,1.8683,1.8673,1.8681,1.8621,1.8623,1.8624,1.8676,0,1.7743,1.786,1.7911,1.8005,1.8067,1.811,1.8167,1.8231,1.8277,1.8337,1.8388,1.8456,1.8465,1.8495,1.8535,1.8591,1.8626,1.8588,1.8674,1.8676,1.8651,1.8691,1.8681,1.8727,1.8684,1.8685,1.8686,0,1.7812,1.788,1.7979,1.8065,1.8093,1.8143,1.8221,1.8277,1.8351,1.8382,1.8436,1.8472,1.8542,1.8537,1.8633,1.8606,1.8644,1.8677,1.868,1.869,1.8682,1.8701,1.8743,1.8749,1.8698,1.8697,1.8696,0,1.781,1.7926,1.8,1.8036,1.8139,1.8173,1.8217,1.829,1.8335,1.8403,1.8433,1.8508,1.8549,1.8607,1.8663,1.8654,1.8754,1.8754,1.8781,1.878,1.88,1.8798,1.8848,1.8825,1.8825,1.8825,1.8825,0,1.7856,1.7915,1.8001,1.8046,1.8113,1.8172,1.8237,1.8285,1.8349,1.8405,1.8448,1.8499,1.8569,1.863,1.8674,1.8747,1.8765,1.8792,1.8803,1.8788,1.8784,1.8813,1.8811,1.8827,1.8827,1.8826,1.8826,0,1.7865,1.7925,1.8008,1.8099,1.8123,1.8168,1.8246,1.8291,1.8339,1.8409,1.8429,1.8504,1.8577,1.8639,1.8735,1.8765,1.884,1.8853,1.8815,1.8821,1.8844,1.8841,1.8914,1.8926,1.8896,1.8896,1.8896,0,1.789,1.7936,1.8031,1.8071,1.8115,1.8179,1.8225,1.8285,1.8331,1.8417,1.8453,1.8529,1.8593,1.8708,1.8771,1.8845,1.886,1.8881,1.8871,1.8854,1.886,1.8856,1.886,1.8881,1.8881,1.8881,1.8881,0,1.7927,1.7954,1.8019,1.8093,1.8146,1.8208,1.8271,1.8302,1.8373,1.8423,1.8498,1.8547,1.8645,1.872,1.88,1.8847,1.8876,1.8883,1.8894,1.8878,1.8854,1.8867,1.8816,1.8881,1.8881,1.8881,1.8881,1.8881,1.7945,1.7987,1.8061,1.8131,1.8184,1.8242,1.8289,1.8343,1.8406,1.849,1.8522,1.8598,1.867,1.8781,1.8828,1.8888,1.8892,1.8907,1.8911,1.8913,1.8911,1.8844,1.8903,1.8903,1.8904,1.8904,1.8904,0,1.7984,1.8033,1.8097,1.8183,1.8238,1.826,1.8331,1.8375,1.8442,1.8506,1.8568,1.8654,1.8727,1.8796,1.8872,1.8907,1.8922,1.8925,1.8923,1.8933,1.8903,1.8887,1.8911,1.8911,1.8911,1.8911,1.8911,1.8911,1.801,1.8084,1.812,1.822,1.8269,1.8344,1.8382,1.8435,1.8487,1.8581,1.8641,1.8685,1.8752,1.8833,1.89,1.8919,1.8945,1.8944,1.8965,1.8937,1.8935,1.8934,1.8918,1.8949,1.8949,1.899,1.899,1.8991]},{"header":{"parameterUnit":"m.s-1","parameterCategory":1,"la1":30.2991,"la2":30.254,"lo1":-89.0895,"lo2":-89.0444,"dy":0.0017,"dx":0.0017,"nx":28,"ny":28,"refTime":"2025-07-11T21:00:00:Z","depth":0,"parameterNumber":3,"parameterNumberName":"V-component_of_WINDS"},"data":[0,0,0,0,0,0,0,0,0,0,0,0,0,0,0,0,0,0,0,0,0,0,0,0,0,0,0,0,0,0,0,0,0,0,0,0,0,0,0,0,0,0,0,0,0,0,0,0,0,0,0,0,0,0,0,0,0,0,4.1331,4.1331,0,4.129,4.129,4.1289,4.1274,4.1275,4.1275,4.1275,4.1227,4.1226,4.1224,0,0,0,0,0,0,0,0,0,0,0,0,0,4.1391,4.139,4.1331,4.1331,4.133,4.129,4.129,4.1289,4.1274,4.1275,4.1275,4.1275,4.1227,4.1226,4.1224,0,0,0,0,0,0,0,0,0,0,0,0,0,4.1359,4.139,4.1332,4.1318,4.1317,4.1291,4.129,4.1289,4.1274,4.1275,4.1275,4.1275,4.1228,4.1226,4.1224,4.1206,0,0,4.1217,4.1216,0,0,0,0,0,0,0,0,4.1361,4.1357,4.1321,4.1319,4.1317,4.1288,4.1293,4.1261,4.1274,4.129,4.1275,4.1275,4.1247,4.1243,4.1235,4.1204,4.1202,4.1217,4.1216,4.1215,4.1214,0,0,0,0,0,0,0,4.1363,4.1359,4.1315,4.132,4.1318,4.1313,4.1308,4.1287,4.1267,4.1289,4.1288,4.1283,4.1246,4.1237,4.1233,4.1201,4.1217,4.1215,4.1214,4.1213,4.1151,4.1151,0,0,0,0,0,0,4.1368,4.1361,4.1316,4.1314,4.134,4.1311,4.1307,4.1297,4.1268,4.1264,4.1283,4.1283,4.124,4.1236,4.1232,4.1208,4.1215,4.1213,4.1212,4.1152,4.1151,4.1151,0,0,0,0,0,0,4.137,4.1365,4.1318,4.1337,4.1331,4.131,4.1299,4.1296,4.1287,4.1263,4.1259,4.1278,4.124,4.1235,4.1212,4.1206,4.1212,4.121,4.1152,4.1152,4.1151,4.1161,0,0,0,0,0,0,4.1372,4.1365,4.136,4.1337,4.133,4.1302,4.1299,4.1295,4.1284,4.1283,4.1257,4.1253,4.124,4.1216,4.121,4.1203,4.1208,4.1153,4.1152,4.1151,4.1161,4.1161,4.116,0,0,0,0,0,4.1374,4.1363,4.136,4.1354,4.1323,4.1301,4.1297,4.1283,4.1284,4.1277,4.1262,4.1254,4.1208,4.1214,4.1207,4.1199,4.1153,4.1152,4.1151,4.1161,4.1161,4.116,0,0,0,0,0,0,4.1384,4.136,4.1356,4.1338,4.1322,4.1299,4.129,4.1284,4.1266,4.1265,4.1247,4.1242,4.1221,4.1208,4.1215,4.118,4.118,4.1177,4.1189,4.1189,4.1188,4.1192,4.1206,0,0,0,0,0,4.1384,4.1371,4.135,4.1336,4.1328,4.1311,4.1301,4.1292,4.1274,4.1266,4.1249,4.1231,4.1212,4.1199,4.1181,4.1159,4.1152,4.115,4.115,4.115,4.1148,4.1134,4.1133,4.1148,4.1148,4.1148,0,0,4.1385,4.137,4.1362,4.1338,4.1324,4.1309,4.1305,4.1289,4.1277,4.1263,4.1242,4.1229,4.1206,4.1184,4.1173,4.1172,4.1142,4.1149,4.1149,4.1147,4.1133,4.1132,4.1131,4.1148,4.1148,4.1148,0,0,4.1377,4.1365,4.1352,4.1339,4.1319,4.1308,4.1304,4.1282,4.1273,4.1252,4.1241,4.1225,4.1193,4.1178,4.1165,4.1151,4.1143,4.1145,4.1144,4.113,4.1129,4.1128,4.1122,4.112,4.1144,4.1144,4.1144,0,4.1379,4.1358,4.1345,4.133,4.1319,4.1308,4.1293,4.128,4.1255,4.1246,4.1246,4.1206,4.119,4.1163,4.116,4.1151,4.1145,4.1148,4.1131,4.1129,4.1128,4.1122,4.112,4.1144,4.1144,4.1144,4.1144,0,4.1361,4.1346,4.1337,4.1315,4.1302,4.1287,4.1271,4.126,4.1252,4.1239,4.1216,4.1197,4.1174,4.1167,4.1158,4.1138,4.1138,4.1135,4.1134,4.1127,4.1121,4.1119,4.1145,4.1144,4.1144,4.1144,0,0,4.1359,4.133,4.1327,4.1316,4.1293,4.1281,4.1264,4.1243,4.1233,4.1216,4.12,4.1173,4.117,4.1156,4.1145,4.1133,4.1122,4.1131,4.113,4.1129,4.1098,4.11,4.1098,4.1117,4.1116,4.1116,4.1099,0,4.1348,4.1321,4.1309,4.1286,4.1271,4.126,4.1245,4.1228,4.1216,4.1199,4.1185,4.1166,4.1163,4.1155,4.1143,4.1126,4.1115,4.1127,4.11,4.1099,4.1106,4.1095,4.1097,4.1083,4.1097,4.1096,4.1096,0,4.1332,4.1316,4.1292,4.1271,4.1264,4.1251,4.123,4.1216,4.1196,4.1187,4.1172,4.1161,4.1141,4.1142,4.1114,4.1122,4.111,4.11,4.1099,4.1095,4.1097,4.109,4.1078,4.1076,4.1092,4.1093,4.1093,0,4.1332,4.1304,4.1286,4.1277,4.1252,4.1243,4.1232,4.1212,4.12,4.1181,4.1173,4.1151,4.1139,4.1121,4.1104,4.1107,4.1076,4.1076,4.1067,4.1068,4.1061,4.1061,4.1046,4.1054,4.1054,4.1054,4.1054,0,4.132,4.1306,4.1286,4.1275,4.1258,4.1243,4.1226,4.1213,4.1196,4.118,4.1168,4.1154,4.1133,4.1115,4.1101,4.1078,4.1073,4.1064,4.106,4.1065,4.1066,4.1056,4.1057,4.1054,4.1054,4.1054,4.1054,0,4.1317,4.1304,4.1283,4.1261,4.1255,4.1243,4.1223,4.1211,4.1198,4.1178,4.1173,4.1152,4.113,4.1111,4.1082,4.1073,4.1049,4.1045,4.1056,4.1054,4.1046,4.1047,4.1023,4.1019,4.1031,4.1031,4.1031,0,4.1311,4.13,4.1277,4.1267,4.1256,4.124,4.1228,4.1212,4.12,4.1176,4.1166,4.1143,4.1125,4.1089,4.107,4.1047,4.1042,4.1035,4.1038,4.1043,4.1041,4.1041,4.1039,4.1035,4.1035,4.1035,4.1035,0,4.1301,4.1295,4.1279,4.126,4.1247,4.1231,4.1214,4.1206,4.1187,4.1173,4.1152,4.1137,4.1108,4.1085,4.106,4.1046,4.1036,4.1034,4.1031,4.1035,4.1041,4.1037,4.1055,4.1035,4.1035,4.1035,4.1035,4.1035,4.1295,4.1285,4.1267,4.1249,4.1236,4.1221,4.1208,4.1194,4.1176,4.1153,4.1144,4.1121,4.1099,4.1065,4.1051,4.1031,4.103,4.1025,4.1024,4.1023,4.1023,4.1045,4.1026,4.1026,4.1026,4.1026,4.1026,0,4.1284,4.1272,4.1256,4.1234,4.122,4.1215,4.1196,4.1184,4.1165,4.1146,4.1129,4.1103,4.1081,4.1059,4.1035,4.1024,4.1019,4.1018,4.1018,4.1014,4.1026,4.1031,4.1022,4.1022,4.1022,4.1022,4.1022,4.1022,4.1276,4.1258,4.1249,4.1223,4.121,4.119,4.118,4.1165,4.115,4.1123,4.1105,4.1092,4.1072,4.1046,4.1024,4.1018,4.101,4.101,4.1002,4.1013,4.1014,4.1014,4.1019,4.1008,4.1008,4.0993,4.0993,4.0993]}]]